SL-16 DEB, 22496

Orbit data source: Space-Track

SL-16 DEB, 22496 is space debris in LEO originally from a launch on Fri, 25 Dec 1992 UTC launched from the Tyuratam Missile And Space Complex (TTMTR). Debris objects in space refer to the collection of defunct objects orbiting the Earth. Examples of debris include non-operational satellites, rocket bodies, and fragments generated from explosions, collisions, or faulty payload assembly.

Loading next visibility...
Identifier
22496, 1992-093GF
Orbit
LEO
Country
Flag of CISCIS
Related business
Manufacturer
Unknown
Mission
Spacecraft
Bus & Motor
Unknown
Mass
Unknown
Launch date (UTC)
1992-12-25 (33 years ago)
Launch vehicle
Unknown
Launch site
Tyuratam Missile And Space Complex (TTMTR)
Object type
Payload
Rocket body
Debris
Shape & HBR
Unknown shape, 0.1 m
Radar Cross Section
Small (<0.1 m²)

Expand to show TLE details & history
Last TLE update: 11 hours ago

TLE from 11 hours ago
0 SL-16 DEB
1 22496U 92093GF  25296.74649259  .00000249  00000-0  19990-3 0  9992
2 22496  71.2159 204.4470 0088611  30.0148   1.0311 13.97810184669785
Epoch: 2025-10-23T17:54Z
TLE epoch observation values (Epoch: 2025-10-23T17:54:56.959Z)
Latitude
29.30123°
Longitude
-85.74679°
Altitude
840.011 km
Speed
7.469 km/s
True Right ascension
14h 21m 34s
True Declination
29° 09' 23"
Sunlit
Object was in daylight at epoch
Visualization orbit readout
Latitude
Unknown
Longitude
Unknown
Altitude
Unknown
Speed
Unknown
Apparent Right ascension
Unknown
Apparent Declination
Unknown
Sunlit
N/A
Visualization observer readout
Local Sidereal Time
00:08:37
Azimuth
Unknown
Elevation
Unknown
Doppler factor
Unknown
Orbital elements
Apogee altitude
963.795 km
Perigee altitude
834.822 km
Semi-major axis
7,277.446 km
Eccentricity
0.00886
Inclination
71.2159°
RAAN
204.447°
Arg. of periapsis
30.0148°
True anomaly
1.04958°
Mean anomaly
1.0311°
Eccentric anomaly
1.04032°
Mean motion
3.49603 °/min
Orbital period
102.97 mins
BSTAR
0.0001999
Loading maneuver chart data...
Computing Atmospheric mass density...
Loading historical data...
Loading historical data...
Loading historical data...
Loading historical data...
Loading historical data...
Loading historical data...
Loading historical data...

Documentation

Showing up to 5 results
|